Location: New Orleans
(29.9540°N, 90.0750°W)
Time: 20:56:10
(UTC-06:00)

LightSail 2 - Visible Passes

Search period start: 24 January 2020 00:00
Search period end: 03 February 2020 00:00
Orbit: 704 x 719 km, 24.0° (Epoch: 24 January)

Date Brightness Start Highest point End Pass type
(mag) Time Alt. Az. Time Alt. Az. Time Alt. Az.
24 Jan 6.2 18:49:49 10° WSW 18:54:35 38° S 18:57:35 20° SE visible
24 Jan 7.9 20:35:47 10° WSW 20:36:32 13° WSW 20:36:32 13° WSW visible
25 Jan 6.2 17:51:22 10° WSW 17:56:12 42° S 18:01:03 10° ESE visible
25 Jan 6.7 19:37:03 10° WSW 19:41:20 26° SSW 19:41:55 26° S visible
26 Jan 6.6 18:38:26 10° WSW 18:42:58 31° SSW 18:47:22 11° SE visible
26 Jan 7.8 20:25:13 10° SW 20:26:20 13° SW 20:26:20 13° SW visible
27 Jan 7.3 19:26:03 10° WSW 19:29:37 19° SSW 19:31:51 15° SSE visible
28 Jan 7.1 18:27:13 10° WSW 18:31:16 24° SSW 18:35:20 10° SE visible
29 Jan 7.7 19:15:50 10° SW 19:17:50 12° SSW 19:19:51 10° S visible
30 Jan 7.6 18:16:20 10° WSW 18:19:29 16° SSW 18:22:40 10° SSE visible
01 Feb 8.2 18:07:31 10° SSW 18:07:39 10° SSW 18:07:48 10° SSW visible
